Dewpoint
72 71 70 69 69 70 70 67 57 57 56 52 53 55 53 62 61 59 58 59 57 61 62 60 58 57 58 57 56 60 62 54 56 51 46 57 70 70 71 72 73 73 72 72 73 73 73 73 74 74 74 76 75 75 75 76 76 76 76 76 76 76 76 76 76 76 76 75 75 75 75 75 75 75 75 75 75 75 75 75 75 75 75 74 74 75 74 75 75 75 75 75 76 75 75 75 75
71 70 70 70 68 67 63 67 57 54 54 52 54 58 58 61 59 58 57 57 58 59 63 59 58 63 63 61 62 59 60 64 64 63 65 68 71 71 71 72 73 73 72 72 73 72 73 73 73 74 74 75 75 75 75 76 76 76 76 76 75 75 75 76 76 76 75 74 75 75 74 75 74 74 75 75 75 75 75 75 75 75 75 75 75 75 75 75 75 75 75 75 75 75 76 75 75
71 70 69 69 69 67 66 66 54 53 50 49 54 58 62 58 58 59 59 61 62 61 60 59 61 64 62 61 58 59 56 64 65 65 66 69 68 69 71 72 73 73 73 73 72 72 72 73 73 73 74 75 75 75 75 76 76 76 75 75 75 75 75 75 76 76 75 74 74 74 75 75 75 75 74 75 75 75 74 74 74 74 74 74 75 75 75 75 75 75 75 75 75 75 75 75 74
71 70 67 67 64 67 60 59 55 53 51 51 53 59 60 59 60 61 63 63 61 60 60 59 58 63 62 59 60 62 62 63 65 65 65 68 65 71 71 72 74 73 74 74 72 71 72 72 73 73 73 74 75 75 76 76 76 76 75 75 75 75 75 75 76 76 75 75 74 74 74 75 75 75 75 74 74 74 74 74 74 74 74 74 74 74 74 74 75 75 75 75 75 75 74 75 75
69 70 69 68 64 60 60 58 56 56 52 54 53 59 60 60 61 62 63 61 60 60 60 59 59 62 64 62 62 59 59 65 65 66 66 70 71 71 72 73 73 74 74 74 73 72 72 73 73 72 73 74 75 76 76 76 75 76 76 75 76 75 75 74 75 76 75 75 74 74 74 74 75 75 74 74 74 74 74 74 74 75 74 74 74 74 75 75 74 75 75 75 74 75 74 75 75
68 69 71 69 63 66 61 56 56 55 57 60 57 58 61 63 61 63 61 63 65 61 60 59 59 60 61 62 64 62 63 60 64 66 68 70 71 72 72 73 73 73 74 74 74 73 73 74 73 73 74 74 75 75 75 75 75 75 75 75 75 75 74 74 74 75 75 75 75 75 75 74 74 74 74 74 74 74 74 74 74 74 74 74 75 75 75 75 75 75 75 75 76 75 75 74 74
67 67 67 67 66 66 56 54 55 57 60 63 60 61 62 64 63 63 61 58 60 61 63 61 61 60 60 62 63 65 66 65 65 66 69 71 71 72 73 73 73 73 74 74 75 75 74 74 74 74 74 75 75 75 75 75 75 75 75 75 74 74 74 74 74 74 74 74 75 74 74 74 74 74 74 74 74 74 74 74 74 74 74 74 75 75 75 74 75 75 75 75 75 76 75 75 75
72 66 66 60 59 60 56 56 57 59 60 63 63 63 64 64 64 63 60 58 58 59 60 60 61 61 61 64 61 66 68 68 68 70 71 71 71 72 72 73 73 73 74 74 75 75 76 75 75 75 75 75 75 75 76 75 75 74 74 75 74 75 74 74 74 74 74 74 73 74 73 74 74 74 74 74 74 74 74 74 74 74 75 74 75 75 75 74 74 74 75 75 75 75 75 74 75
69 67 67 61 56 59 57 55 57 61 62 63 63 66 66 65 65 61 59 60 60 60 60 60 60 58 61 63 63 67 68 69 70 71 71 71 71 72 72 73 73 73 74 74 75 76 76 76 75 75 75 75 75 76 75 75 75 75 74 74 75 75 74 74 74 73 74 73 73 73 73 74 74 74 74 75 75 75 75 75 75 75 75 74 75 75 75 74 74 75 75 75 75 74 74 75 75
67 66 62 60 58 55 56 55 55 59 61 63 63 65 65 65 64 64 59 58 59 60 61 63 63 61 62 61 63 66 68 70 70 70 70 70 71 71 72 73 73 73 74 74 75 76 76 76 75 75 75 75 76 76 75 75 75 75 75 74 75 75 74 74 74 73 72 72 73 73 73 73 74 74 75 75 75 75 75 74 74 74 74 74 74 75 74 74 75 75 75 75 75 75 75 75 75
63 67 67 58 56 54 52 53 57 60 61 64 64 66 65 65 64 62 60 60 62 61 62 62 61 61 62 63 64 68 69 69 69 69 70 70 71 71 72 73 73 73 74 75 75 75 75 75 75 75 75 76 76 76 75 75 75 75 74 74 75 75 75 74 74 73 72 72 73 73 73 73 74 74 75 75 75 75 75 74 74 74 74 74 75 74 74 74 75 75 75 75 75 75 75 75 75
62 62 60 55 55 54 56 57 58 60 62 63 63 64 65 66 64 60 60 60 61 61 60 61 60 62 61 62 64 68 68 69 69 70 70 70 71 71 72 72 73 74 74 75 75 75 75 75 76 75 76 76 75 75 75 75 75 75 75 75 75 75 74 74 74 73 73 72 73 73 73 73 74 74 75 75 75 74 75 75 75 74 74 75 74 74 74 75 76 75 75 75 75 74 75 75 74
60 61 60 57 56 56 58 57 58 59 60 61 63 66 68 66 62 60 61 61 61 59 59 62 62 61 60 62 66 67 67 68 69 69 70 70 71 72 72 72 73 74 75 75 75 75 75 75 76 75 75 76 75 75 75 75 75 75 74 75 74 74 73 74 74 73 74 73 73 73 73 74 74 74 74 74 74 74 74 75 74 74 75 75 74 74 74 75 75 75 75 74 74 74 75 74 74
61 63 61 56 60 59 57 58 59 57 59 63 65 67 66 65 65 62 61 60 60 59 62 62 62 62 62 63 65 65 67 69 69 69 70 71 71 72 72 73 73 74 74 75 74 75 75 75 75 75 75 76 76 75 75 75 75 74 74 75 74 74 74 74 75 74 73 74 73 73 73 74 74 74 74 74 74 74 74 74 74 74 75 75 74 74 75 75 75 74 74 74 74 74 74 74 74
61 66 63 60 58 58 59 56 57 58 58 63 65 65 65 66 65 63 61 59 61 64 62 63 63 59 58 60 62 64 67 68 69 70 71 71 71 72 72 73 73 74 74 74 74 74 74 75 75 75 75 74 74 74 75 75 74 74 75 74 74 75 74 74 74 74 73 74 73 73 73 73 73 73 73 74 74 74 74 74 74 74 74 74 74 74 75 75 74 74 74 74 74 73 73 73 73
63 66 63 58 56 57 58 59 59 58 59 64 65 66 63 65 68 62 64 64 62 63 62 60 63 60 60 61 63 66 68 68 69 70 71 71 71 71 72 72 73 73 74 74 74 74 75 74 74 74 74 74 74 74 74 74 75 75 74 74 75 75 75 74 74 73 74 74 74 74 74 75 74 74 74 74 74 74 74 74 74 74 74 74 74 74 74 74 74 74 74 74 74 73 73 73 73
70 65 59 57 55 57 58 59 59 57 62 64 65 64 60 62 67 68 70 64 61 61 62 61 61 62 61 63 65 67 68 69 70 70 70 70 70 70 71 72 72 73 74 74 74 74 74 74 74 74 74 74 74 74 73 74 76 76 76 74 74 74 74 74 74 74 75 74 75 75 75 74 75 75 75 75 75 75 74 74 74 74 74 74 74 74 75 76 75 75 74 74 75 74 74 75 75
66 61 58 56 58 57 60 60 62 63 61 63 64 64 62 61 64 65 63 62 62 61 61 62 63 63 64 66 67 67 68 68 69 69 69 69 69 69 70 71 71 71 73 73 74 74 74 74 74 74 74 74 74 74 73 74 74 75 74 74 75 75 74 74 75 75 75 74 75 75 75 75 75 75 76 76 76 76 75 74 74 74 74 74 74 75 75 75 75 75 75 75 76 75 76 75 75
61 58 56 54 59 61 63 64 65 61 62 63 64 65 64 62 64 65 60 60 60 60 61 62 62 64 65 66 66 67 67 68 68 68 68 68 68 68 69 70 70 71 72 73 73 74 74 74 74 73 73 74 74 73 74 74 73 74 74 74 75 76 75 75 74 74 73 73 74 74 75 74 74 75 75 75 76 75 75 74 74 75 75 75 75 75 75 75 75 74 74 75 75 76 74 75 74
61 58 55 57 63 61 63 64 65 66 64 63 63 65 64 65 67 68 60 59 60 59 60 61 62 63 64 65 66 67 67 67 67 67 67 67 68 68 68 69 69 70 71 72 73 74 74 74 74 74 73 74 73 73 73 73 73 73 73 74 74 74 73 74 74 74 74 74 74 74 74 74 74 74 75 75 76 74 74 74 74 74 75 76 76 76 74 74 75 75 75 76 75 75 74 74 74
61 59 57 59 64 63 65 66 66 65 64 63 64 65 63 66 65 63 60 58 59 60 61 61 62 63 64 65 65 66 66 66 66 66 66 67 67 67 68 69 69 70 71 72 73 73 73 74 74 74 73 73 73 74 73 73 73 73 73 73 73 73 73 73 73 73 73 73 74 74 74 73 73 73 73 73 73 74 74 74 74 74 75 76 76 74 74 75 75 74 74 75 74 74 74 74 74
61 58 60 63 65 63 66 67 65 64 65 64 64 61 62 66 65 60 59 57 57 60 61 62 63 64 64 64 65 66 66 66 66 66 66 66 66 66 67 68 70 71 72 72 72 73 73 74 74 73 74 74 73 72 73 74 73 73 73 73 73 73 73 73 73 73 73 74 74 74 74 73 73 73 73 73 73 73 73 73 73 74 74 74 75 73 74 74 74 74 74 74 74 74 74 73 75
58 61 60 63 64 65 67 66 65 65 64 64 62 64 64 63 62 62 60 59 60 62 62 63 64 64 65 65 65 65 65 65 66 65 65 65 65 66 67 68 69 70 71 71 72 73 74 74 74 73 73 73 73 73 73 73 73 73 73 73 73 73 73 73 73 73 74 74 74 75 73 73 73 73 72 73 73 73 73 73 73 73 73 73 74 73 73 73 74 73 73 73 74 74 74 73 73
58 57 61 64 64 65 66 65 66 65 64 63 66 66 63 61 59 62 60 63 62 63 63 63 64 65 65 64 65 65 65 65 65 65 65 65 65 66 67 68 69 70 71 72 72 73 74 73 74 73 73 73 72 73 73 72 73 73 74 75 73 75 73 73 74 74 74 75 75 75 74 73 72 72 72 72 72 73 73 73 73 73 73 74 75 74 73 73 73 73 74 74 73 74 73 74 73
57 59 63 65 65 65 66 65 65 66 66 67 66 63 63 63 62 62 62 64 62 63 63 64 64 64 64 64 64 65 65 65 65 65 65 65 66 66 67 68 69 70 70 71 72 73 73 73 73 73 73 73 73 73 72 73 73 73 74 73 73 75 73 74 74 74 74 75 75 75 74 73 73 72 72 72 72 73 73 73 73 73 73 74 74 73 74 73 73 73 73 73 73 73 73 73 73
57 62 64 64 65 65 66 66 66 66 66 66 64 62 63 64 65 64 65 63 63 63 63 63 64 64 63 64 64 65 65 65 65 65 65 65 66 66 67 68 69 70 71 71 72 72 73 73 73 73 73 73 73 73 72 72 72 72 73 73 72 74 73 74 74 74 74 74 74 74 74 73 73 73 73 72 72 73 73 73 73 73 73 74 73 73 74 73 73 73 73 73 73 73 73 73 74
63 64 64 64 65 65 66 65 66 66 65 66 63 62 61 65 64 58 64 63 63 63 63 63 63 63 63 63 64 64 64 65 65 65 65 65 66 66 67 68 69 70 71 71 72 72 73 73 73 73 73 74 73 73 72 72 73 72 73 73 73 73 74 75 74 74 74 74 74 74 74 75 73 73 73 73 73 73 73 73 73 73 73 74 75 74 74 74 73 73 74 74 74 74 74 73 74
64 64 64 64 65 65 66 65 65 65 64 66 63 62 63 65 63 60 61 63 64 63 62 63 63 63 63 63 64 64 64 65 65 64 64 65 66 66 67 68 69 70 71 72 72 73 73 73 73 73 73 74 73 73 73 72 72 73 73 73 73 73 74 74 74 74 74 74 74 74 74 74 75 73 73 74 74 73 73 73 73 73 73 73 74 74 75 76 76 75 75 76 75 74 73 72 73
63 63 62 62 64 63 65 64 64 66 64 66 64 61 60 62 61 64 62 63 63 62 62 62 62 62 63 63 63 64 64 64 64 64 65 65 66 67 67 69 69 70 71 72 72 73 72 73 73 73 74 74 73 73 73 72 73 72 73 73 74 74 74 74 73 73 73 74 74 74 74 74 75 73 73 74 75 73 73 73 73 74 73 73 74 76 75 74 74 73 74 74 75 73 73 72 72
60 61 61 60 61 61 63 63 63 64 65 66 63 54 57 60 62 65 62 63 62 62 61 62 62 62 62 63 63 63 64 64 63 64 65 66 67 67 67 69 70 70 71 72 72 72 73 73 73 73 74 74 73 73 73 72 72 73 73 74 74 74 74 74 73 73 73 74 74 74 73 75 74 74 74 74 74 73 73 73 73 73 73 74 75 75 74 74 74 73 74 73 74 73 72 73 71
58 60 58 58 57 58 61 61 61 62 65 66 65 54 56 61 62 66 63 63 61 61 61 61 61 61 62 62 63 63 63 63 63 64 65 66 67 67 68 69 70 71 72 72 72 72 73 73 73 73 74 73 74 73 73 72 72 73 73 73 74 74 74 73 73 73 73 73 73 73 74 75 74 74 75 75 74 73 73 73 73 73 74 75 75 75 74 73 74 73 74 73 72 72 72 75 70
58 55 52 56 54 57 61 62 62 60 63 65 63 55 57 60 61 65 63 62 62 61 61 61 61 61 61 62 62 62 62 63 63 63 65 66 66 67 68 69 70 71 71 72 72 72 72 73 73 73 74 73 74 74 73 73 73 73 73 74 73 73 73 73 73 73 73 73 73 73 74 75 75 74 75 75 74 73 73 73 73 74 75 75 74 74 75 74 74 74 73 74 72 71 73 70 71
54 51 51 53 56 57 59 61 63 63 63 63 63 56 58 59 63 66 62 62 61 60 60 60 60 60 61 61 61 62 62 62 62 62 64 66 66 67 68 69 70 71 71 71 72 72 72 72 73 73 73 73 73 74 73 73 73 73 73 74 73 73 72 72 73 73 73 73 73 73 74 75 74 75 76 76 75 74 73 73 73 74 76 74 74 74 74 75 74 73 73 75 73 73 70 69 70
52 51 52 54 55 57 56 61 63 62 62 59 62 58 58 61 63 65 61 61 61 59 59 60 60 60 60 60 61 61 61 61 61 62 63 65 66 67 68 70 70 70 71 71 72 72 71 72 72 73 73 73 73 73 73 73 72 73 73 73 73 72 72 72 73 73 73 73 73 73 74 75 75 75 75 76 75 75 74 74 74 74 75 74 74 74 73 74 75 73 73 74 75 72 71 70 71
51 49 52 53 56 56 57 57 60 62 61 60 60 59 60 61 63 64 61 61 60 59 58 59 59 59 59 59 60 60 60 60 60 62 63 65 66 67 68 70 70 70 70 71 71 71 71 72 73 73 73 73 73 73 73 72 72 72 72 72 72 72 72 72 73 73 73 73 74 74 75 76 76 75 75 76 74 75 74 74 74 75 75 74 73 73 72 74 74 73 73 75 75 74 73 73 72
49 51 53 54 54 54 57 59 62 61 60 59 59 57 59 60 62 63 62 62 59 58 58 58 58 59 59 59 58 59 59 59 60 61 63 64 66 67 68 69 69 70 70 70 71 71 71 72 72 73 72 72 73 72 72 72 72 71 71 71 71 72 71 72 73 72 73 73 74 74 75 75 77 76 75 76 75 75 74 74 75 75 75 74 73 72 72 72 73 73 74 76 74 73 74 73 72
50 50 53 55 56 57 60 60 61 63 60 59 60 59 60 60 61 61 66 65 60 57 57 58 58 58 58 58 58 58 58 58 59 61 63 64 65 66 68 69 69 69 70 70 70 70 71 72 72 71 72 72 72 71 71 71 70 70 70 70 70 71 71 72 72 72 73 74 75 75 75 75 76 77 76 76 75 78 74 74 75 75 75 74 74 73 72 73 76 76 75 75 73 71 72 73 73
31 49 52 54 54 55 59 60 61 62 59 58 60 60 59 60 61 63 64 62 59 58 57 57 57 58 58 58 58 57 57 58 59 60 62 64 64 66 67 68 69 68 69 70 70 70 71 71 71 71 71 72 72 71 71 71 71 70 70 69 70 70 71 71 71 72 73 73 75 75 75 75 76 76 77 76 76 75 75 74 75 75 75 74 75 75 75 77 75 75 74 74 73 72 71 73 71
29 49 52 53 56 59 60 61 61 61 59 58 59 58 59 60 62 63 63 63 63 64 65 58 57 57 58 57 57 57 56 56 58 59 62 63 64 66 67 68 68 68 69 69 70 70 71 71 71 71 71 72 71 71 71 70 71 71 70 71 71 71 72 72 71 72 74 73 75 75 76 76 76 76 77 77 76 76 75 74 75 75 74 76 74 74 74 74 75 75 74 73 72 72 74 74 72
24 51 51 51 57 55 54 58 59 59 59 57 58 57 59 61 61 61 62 63 64 65 65 65 61 57 57 57 57 56 54 55 57 59 61 62 64 65 67 67 68 68 69 69 69 70 70 71 71 71 71 71 71 71 71 71 71 72 72 72 72 72 71 73 73 73 73 73 74 75 76 76 76 76 76 77 77 76 75 74 74 75 74 76 74 73 73 74 75 75 75 75 72 71 69 71 74
20 39 51 52 56 54 55 57 58 58 59 59 58 56 56 59 58 59 62 64 64 63 65 65 64 64 58 59 58 57 54 55 57 58 61 62 63 65 66 67 67 67 68 68 69 69 70 70 71 71 71 71 71 72 71 71 73 73 73 73 74 73 73 72 72 72 72 73 74 74 75 76 76 76 76 76 77 76 75 75 75 75 74 75 74 73 73 74 75 75 75 76 73 71 70 70 72
18 17 37 53 57 57 57 57 56 55 55 57 56 50 51 57 58 58 61 62 62 63 62 63 63 63 61 57 56 56 57 55 57 58 61 62 63 65 66 67 66 67 67 68 68 69 70 70 71 71 71 71 71 72 71 72 72 72 72 71 71 71 70 70 70 70 71 72 73 74 75 76 76 76 76 76 77 76 75 75 75 75 75 75 75 73 74 75 75 75 75 75 74 73 72 72 71
22 22 18 49 56 57 57 56 55 52 51 54 56 49 47 56 56 58 59 60 61 63 62 61 64 63 62 57 56 53 53 54 56 58 61 61 63 64 65 66 66 66 67 68 68 69 70 70 70 71 71 71 72 72 72 73 72 72 72 71 71 71 70 71 71 72 72 73 74 74 75 76 76 76 76 76 76 77 76 76 75 75 75 75 77 75 75 74 74 75 75 75 75 76 74 73 71
18 18 15 51 56 56 56 56 54 53 56 55 56 53 48 47 55 58 59 59 60 60 61 62 63 64 63 60 58 54 53 53 55 58 60 62 63 64 64 65 66 66 67 67 68 69 70 70 70 71 71 72 72 72 72 72 72 72 72 71 72 71 70 71 72 73 73 74 74 75 75 75 76 76 76 76 76 77 76 76 75 75 75 75 77 75 74 74 76 76 76 76 75 76 75 73 72
19 27 42 55 56 56 56 55 52 53 54 51 54 53 46 47 54 60 59 57 58 59 60 61 62 63 63 63 63 56 53 53 55 57 59 61 63 64 64 65 65 66 66 67 68 69 70 70 71 71 71 72 72 72 72 72 72 72 72 72 72 72 72 72 73 74 74 75 74 74 75 75 76 76 75 75 75 76 78 76 76 76 76 76 77 76 75 75 75 75 75 76 75 75 74 73 73
27 55 55 56 56 55 54 52 53 51 49 49 53 54 45 47 54 56 58 56 56 58 60 61 62 62 63 63 64 64 55 52 55 57 59 61 62 63 64 65 65 65 66 68 68 69 70 70 70 70 71 71 72 72 72 72 72 73 72 72 72 72 73 72 73 73 74 74 74 74 75 75 75 75 75 75 75 76 77 77 76 75 76 75 77 76 75 76 75 76 75 75 75 74 75 74 74
50 52 50 50 50 51 52 51 50 48 42 46 53 53 45 42 52 54 54 55 57 58 60 62 63 62 63 64 64 66 58 51 54 57 59 61 62 63 64 64 65 65 66 67 67 69 69 70 70 70 70 71 72 72 71 71 72 72 72 72 72 71 72 71 72 72 73 73 73 73 74 75 75 75 75 75 75 76 77 77 76 75 76 77 78 76 75 75 74 74 75 75 75 74 74 75 76
51 50 50 49 49 52 50 50 50 41 39 43 52 53 48 40 44 54 55 57 60 60 60 61 62 63 63 63 64 66 65 53 55 57 59 60 62 63 63 64 65 65 66 67 67 68 69 70 70 69 70 71 71 72 71 71 72 72 72 72 71 72 71 71 71 72 73 73 73 73 74 74 75 75 75 75 75 75 77 77 77 76 77 76 76 76 76 75 75 75 75 75 75 75 75 76 74
50 50 50 47 43 46 44 46 43 41 38 42 51 50 47 45 48 55 56 56 56 60 61 61 62 63 63 64 65 66 68 63 56 58 59 60 61 61 62 64 65 65 65 66 66 68 69 69 70 69 69 70 70 71 71 71 71 71 71 71 71 72 72 71 71 71 72 73 73 73 73 74 74 74 74 74 75 75 76 76 76 76 76 76 76 76 76 76 75 75 75 74 75 75 74 75 74
50 48 45 43 38 38 37 40 41 38 40 48 50 50 45 48 53 58 59 60 60 59 61 63 63 63 63 64 66 67 68 66 57 57 59 59 60 61 62 63 64 64 65 66 66 68 69 69 70 69 69 70 70 71 71 71 71 71 71 71 71 72 72 71 71 71 72 73 73 73 73 73 74 74 74 74 75 75 76 76 77 76 76 76 76 76 76 76 76 75 75 75 74 75 74 75 75
49 49 45 44 41 39 36 38 37 37 41 47 49 46 42 47 52 59 61 62 63 64 61 63 63 64 66 67 67 68 67 66 64 57 58 59 60 61 62 63 63 64 64 65 66 67 69 69 69 69 69 70 70 70 71 71 71 71 71 71 72 72 72 72 72 71 72 72 73 73 73 74 74 74 74 75 76 76 76 76 76 76 76 76 76 76 76 76 77 76 76 75 75 74 75 75 74
47 46 45 43 42 41 39 40 39 44 46 46 47 47 52 52 57 59 62 62 63 64 62 63 63 66 67 67 67 67 67 66 65 59 58 59 60 61 62 62 63 63 64 65 66 67 68 69 69 69 69 69 70 71 70 70 71 71 71 72 71 72 73 72 73 73 73 72 73 73 73 74 74 74 75 75 75 76 76 76 76 76 76 75 76 76 76 76 76 76 75 75 75 75 74 74 74
37 43 43 43 44 41 44 47 46 47 46 46 50 50 53 55 57 59 62 61 62 64 63 62 63 65 65 66 67 67 67 67 66 63 59 59 60 61 61 62 62 63 63 65 66 67 68 69 69 69 69 69 69 71 70 70 71 71 71 72 71 72 73 72 72 72 72 73 73 73 73 73 74 74 74 75 75 75 75 75 75 76 76 75 75 76 76 76 76 76 75 75 75 74 76 75 74
37 41 42 31 34 40 42 41 39 41 41 45 49 47 47 48 47 58 60 59 60 61 63 63 63 64 64 65 66 66 67 67 68 69 68 63 60 61 61 61 62 63 63 64 66 67 68 68 69 68 69 69 69 70 70 70 70 71 71 71 72 72 72 72 72 72 73 73 73 74 74 74 74 74 74 74 75 75 75 76 75 75 76 76 76 75 76 76 76 76 76 76 75 75 75 76 76
41 40 40 30 29 34 35 42 37 36 39 42 47 47 49 50 49 56 57 58 59 60 62 63 63 63 63 65 66 67 68 68 68 69 68 68 65 62 61 62 62 63 64 64 66 66 67 68 68 68 68 68 69 69 70 71 70 70 71 71 72 72 72 72 72 73 73 73 73 73 73 74 74 75 75 75 75 74 75 75 75 74 75 76 76 76 76 76 76 76 76 76 76 75 75 75 75
23 27 25 28 29 31 38 39 41 39 41 43 43 46 44 48 50 55 58 58 58 59 60 61 63 63 63 64 66 66 67 67 67 69 69 69 68 67 64 62 62 63 64 64 66 67 66 67 69 68 68 69 70 69 71 70 70 70 70 71 71 72 73 73 73 73 73 73 73 73 73 73 74 75 75 74 74 74 74 74 74 74 74 75 76 76 76 76 76 76 76 75 76 76 75 75 75
21 23 23 22 27 30 33 34 41 41 42 41 40 40 44 47 55 57 58 58 58 59 59 60 61 63 64 64 65 66 66 67 67 68 69 70 69 70 69 66 63 64 65 65 66 67 67 67 68 69 69 69 69 69 70 71 71 71 71 71 71 71 72 73 72 72 73 73 73 74 73 73 74 74 75 75 74 74 75 74 74 75 74 75 76 76 76 76 76 76 76 76 76 76 76 76 76
21 20 20 19 25 32 33 29 33 44 41 38 39 37 44 51 57 59 58 58 59 59 60 60 62 63 64 65 66 66 67 68 67 69 70 69 70 70 70 70 69 66 66 65 66 67 68 67 68 69 70 70 71 70 70 71 72 71 71 71 71 71 72 73 72 72 72 72 73 74 74 74 74 74 75 74 75 74 74 74 74 74 75 75 76 76 75 76 76 76 76 75 75 75 75 75 75